[[{"header":{"parameterUnit":"m.s-1","parameterCategory":1,"la1":30.2991,"la2":30.254,"lo1":-89.0895,"lo2":-89.0444,"dy":0.0017,"dx":0.0017,"nx":28,"ny":28,"refTime":"2024-02-07T03:00:00:Z","depth":0,"parameterNumber":2,"parameterNumberName":"U-component_of_WINDS"},"data":[0,0,0,0,0,0,0,0,0,0,0,0,0,0,0,0,0,0,0,0,0,0,0,0,0,0,0,0,0,0,0,0,0,0,0,0,0,0,0,0,0,0,0,0,0,0,0,0,0,0,0,0,0,0,0,0,0,0,-4.2129,-4.213,0,-4.2208,-4.2209,-4.221,-4.2179,-4.2178,-4.2176,-4.2174,-4.2257,-4.2261,-4.2265,0,0,0,0,0,0,0,0,0,0,0,0,0,-4.1956,-4.1959,-4.2129,-4.213,-4.2131,-4.2208,-4.2209,-4.221,-4.218,-4.2178,-4.2175,-4.2173,-4.2256,-4.2261,-4.2265,0,0,0,0,0,0,0,0,0,0,0,0,0,-4.2033,-4.196,-4.2129,-4.2125,-4.2126,-4.2208,-4.2209,-4.2211,-4.218,-4.2177,-4.2175,-4.2172,-4.2254,-4.226,-4.2266,-4.2357,0,0,-4.2284,-4.2286,0,0,0,0,0,0,0,0,-4.2028,-4.2039,-4.2125,-4.2126,-4.2126,-4.2181,-4.2179,-4.226,-4.2181,-4.216,-4.2174,-4.2171,-4.2234,-4.2242,-4.2263,-4.2361,-4.2365,-4.2284,-4.2288,-4.2291,-4.2292,0,0,0,0,0,0,0,-4.2023,-4.2035,-4.2161,-4.2126,-4.2127,-4.2121,-4.2129,-4.2194,-4.2212,-4.2161,-4.2159,-4.2169,-4.2234,-4.2257,-4.2264,-4.2366,-4.2284,-4.2289,-4.2293,-4.2295,-4.2546,-4.2549,0,0,0,0,0,0,-4.2017,-4.2031,-4.2158,-4.2163,-4.2069,-4.2126,-4.2135,-4.2166,-4.2211,-4.2215,-4.2171,-4.2167,-4.2248,-4.2257,-4.2267,-4.2378,-4.229,-4.2296,-4.2299,-4.2543,-4.2547,-4.255,0,0,0,0,0,0,-4.2013,-4.2028,-4.2155,-4.2097,-4.2112,-4.2132,-4.2168,-4.2169,-4.2192,-4.2218,-4.2221,-4.2191,-4.2246,-4.2259,-4.2336,-4.238,-4.2299,-4.2304,-4.254,-4.2544,-4.2549,-4.2599,0,0,0,0,0,0,-4.2008,-4.2027,-4.2061,-4.2098,-4.2115,-4.2221,-4.217,-4.2173,-4.2202,-4.2198,-4.2238,-4.2242,-4.2245,-4.2327,-4.2341,-4.2387,-4.2309,-4.2536,-4.2542,-4.2547,-4.2593,-4.2605,-4.2615,0,0,0,0,0,-4.2002,-4.2072,-4.2063,-4.2078,-4.2158,-4.2223,-4.2234,-4.2236,-4.2206,-4.224,-4.2258,-4.224,-4.2374,-4.2335,-4.2351,-4.2399,-4.2533,-4.254,-4.2547,-4.2589,-4.2603,-4.2614,0,0,0,0,0,0,-4.204,-4.2077,-4.2067,-4.215,-4.2184,-4.2218,-4.2261,-4.225,-4.2293,-4.2287,-4.2289,-4.2299,-4.2378,-4.2396,-4.2353,-4.2491,-4.2449,-4.2459,-4.2475,-4.2489,-4.2499,-4.2492,-4.2313,0,0,0,0,0,-4.2058,-4.2107,-4.2137,-4.2208,-4.2226,-4.2241,-4.227,-4.2269,-4.2304,-4.2318,-4.2341,-4.2376,-4.2426,-4.2459,-4.2506,-4.2597,-4.2606,-4.2638,-4.2649,-4.2658,-4.2666,-4.2717,-4.2732,-4.2574,-4.2573,-4.2573,0,0,-4.2096,-4.2122,-4.2153,-4.2217,-4.2242,-4.2294,-4.2253,-4.2309,-4.2348,-4.2327,-4.24,-4.2419,-4.2459,-4.2543,-4.2582,-4.2561,-4.2712,-4.2667,-4.2673,-4.2677,-4.2726,-4.2741,-4.2754,-4.2578,-4.2577,-4.2577,0,0,-4.219,-4.2215,-4.2277,-4.2305,-4.2345,-4.2355,-4.2371,-4.2407,-4.2418,-4.2492,-4.2478,-4.2526,-4.2611,-4.2641,-4.2667,-4.2777,-4.2763,-4.2793,-4.2847,-4.2897,-4.2909,-4.292,-4.296,-4.2974,-4.2802,-4.2802,-4.2802,0,-4.2232,-4.2308,-4.2311,-4.2369,-4.2398,-4.2382,-4.2446,-4.2473,-4.2526,-4.2547,-4.2524,-4.2633,-4.2659,-4.275,-4.2778,-4.28,-4.2818,-4.2787,-4.2907,-4.2918,-4.2929,-4.2966,-4.2981,-4.2805,-4.2805,-4.2805,-4.2804,0,-4.2358,-4.2412,-4.2458,-4.251,-4.2544,-4.2605,-4.2618,-4.2653,-4.2651,-4.2664,-4.2741,-4.2773,-4.2826,-4.2849,-4.2847,-4.2941,-4.2927,-4.2906,-4.2863,-4.2947,-4.2982,-4.2997,-4.281,-4.2809,-4.2808,-4.2807,0,0,-4.2474,-4.253,-4.2546,-4.2571,-4.2616,-4.2658,-4.272,-4.2772,-4.2802,-4.2842,-4.2893,-4.2968,-4.295,-4.298,-4.2982,-4.3025,-4.3111,-4.2999,-4.3,-4.3018,-4.3218,-4.3232,-4.3249,-4.3103,-4.3106,-4.3108,-4.3214,0,-4.2572,-4.2678,-4.2684,-4.278,-4.2831,-4.2819,-4.2873,-4.2907,-4.2922,-4.2969,-4.2986,-4.3039,-4.301,-4.3029,-4.3072,-4.3091,-4.3151,-4.3084,-4.3152,-4.3154,-4.314,-4.3267,-4.3282,-4.338,-4.3228,-4.323,-4.3232,0,-4.2698,-4.2741,-4.2843,-4.2883,-4.2904,-4.2952,-4.3002,-4.3047,-4.3087,-4.3095,-4.313,-4.3127,-4.3192,-4.3149,-4.3239,-4.3194,-4.3223,-4.3237,-4.3241,-4.3245,-4.3196,-4.3274,-4.3411,-4.3425,-4.3254,-4.3252,-4.3251,0,-4.2772,-4.2856,-4.2928,-4.295,-4.2998,-4.3032,-4.3054,-4.3091,-4.3124,-4.3168,-4.319,-4.3242,-4.327,-4.3311,-4.3323,-4.3291,-4.3413,-4.3371,-4.3422,-4.3422,-4.3446,-4.3444,-4.3588,-4.3468,-4.3467,-4.3467,-4.3467,0,-4.2879,-4.2941,-4.2962,-4.3006,-4.3077,-4.3085,-4.3155,-4.3175,-4.3209,-4.3258,-4.3252,-4.3298,-4.3312,-4.3361,-4.3371,-4.3445,-4.3458,-4.3467,-4.3468,-4.3466,-4.3465,-4.3483,-4.3476,-4.3471,-4.347,-4.3469,-4.3469,0,-4.2971,-4.2988,-4.3065,-4.3106,-4.3118,-4.3168,-4.3203,-4.3247,-4.3263,-4.3325,-4.3341,-4.3366,-4.3424,-4.3441,-4.3511,-4.3518,-4.3604,-4.36,-4.3589,-4.3589,-4.3639,-4.3633,-4.3798,-4.382,-4.3687,-4.3688,-4.3689,0,-4.3037,-4.3085,-4.3131,-4.3163,-4.3187,-4.3239,-4.3272,-4.3283,-4.3318,-4.337,-4.3407,-4.3465,-4.3511,-4.3605,-4.3631,-4.3685,-4.3681,-4.3736,-4.3689,-4.3686,-4.3681,-4.3677,-4.3682,-4.3744,-4.3745,-4.3746,-4.3747,0,-4.3151,-4.3158,-4.3205,-4.3257,-4.3297,-4.3338,-4.3378,-4.3405,-4.3423,-4.3463,-4.3522,-4.3558,-4.3631,-4.3688,-4.3744,-4.3768,-4.3761,-4.3762,-4.3777,-4.3773,-4.3765,-4.377,-4.3612,-4.3757,-4.3756,-4.3756,-4.3755,-4.3755,-4.3231,-4.3274,-4.3314,-4.3368,-4.34,-4.3438,-4.3481,-4.3503,-4.3553,-4.3611,-4.3616,-4.3681,-4.3723,-4.3797,-4.3825,-4.3876,-4.386,-4.3881,-4.3886,-4.3891,-4.3895,-4.3759,-4.3887,-4.3887,-4.3886,-4.3886,-4.3886,0,-4.3345,-4.337,-4.342,-4.3476,-4.352,-4.3511,-4.3555,-4.3592,-4.3649,-4.3688,-4.3735,-4.3804,-4.3861,-4.3893,-4.395,-4.3985,-4.3983,-4.4,-4.3996,-4.4002,-4.3906,-4.3887,-4.4,-4.4,-4.4,-4.4,-4.4,-4.4,-4.3408,-4.348,-4.3492,-4.3581,-4.3607,-4.3669,-4.3696,-4.3731,-4.3763,-4.3841,-4.3888,-4.3908,-4.3946,-4.4006,-4.4058,-4.4066,-4.4087,-4.4105,-4.4111,-4.402,-4.4008,-4.3997,-4.3979,-4.411,-4.411,-4.4202,-4.4203,-4.4204]},{"header":{"parameterUnit":"m.s-1","parameterCategory":1,"la1":30.2991,"la2":30.254,"lo1":-89.0895,"lo2":-89.0444,"dy":0.0017,"dx":0.0017,"nx":28,"ny":28,"refTime":"2024-02-07T03:00:00:Z","depth":0,"parameterNumber":3,"parameterNumberName":"V-component_of_WINDS"},"data":[0,0,0,0,0,0,0,0,0,0,0,0,0,0,0,0,0,0,0,0,0,0,0,0,0,0,0,0,0,0,0,0,0,0,0,0,0,0,0,0,0,0,0,0,0,0,0,0,0,0,0,0,0,0,0,0,0,0,1.9738,1.9738,0,1.9768,1.9768,1.9769,1.9855,1.9857,1.9859,1.9861,1.9886,1.9885,1.9884,0,0,0,0,0,0,0,0,0,0,0,0,0,1.9751,1.975,1.9738,1.9738,1.9739,1.9768,1.9768,1.9769,1.9855,1.9857,1.9859,1.9861,1.9886,1.9885,1.9884,0,0,0,0,0,0,0,0,0,0,0,0,0,1.9759,1.975,1.9738,1.9785,1.979,1.9768,1.9768,1.9769,1.9854,1.9857,1.986,1.9863,1.9887,1.9885,1.9884,1.9817,0,0,1.9879,1.9878,0,0,0,0,0,0,0,0,1.9759,1.9759,1.9778,1.9782,1.9787,1.9811,1.9782,1.9785,1.9853,1.9829,1.9861,1.9864,1.9858,1.9859,1.9859,1.9818,1.9819,1.9879,1.9878,1.9877,1.9876,0,0,0,0,0,0,0,1.9758,1.9758,1.975,1.9778,1.9783,1.9804,1.9808,1.9783,1.9827,1.9832,1.9838,1.9841,1.9861,1.986,1.986,1.9819,1.9879,1.9877,1.9876,1.9875,1.9727,1.9724,0,0,0,0,0,0,1.9751,1.9757,1.9749,1.9751,1.978,1.9801,1.9806,1.98,1.9828,1.9835,1.9838,1.9845,1.9861,1.9862,1.9861,1.9785,1.9877,1.9875,1.9874,1.973,1.9726,1.9723,0,0,0,0,0,0,1.9751,1.975,1.9747,1.9755,1.9757,1.9798,1.9791,1.9799,1.9798,1.9833,1.9841,1.9829,1.9864,1.9863,1.9828,1.9787,1.9875,1.9873,1.9733,1.9729,1.9724,1.9633,0,0,0,0,0,0,1.9751,1.9749,1.9725,1.9754,1.9756,1.9715,1.9788,1.9798,1.9796,1.9804,1.9826,1.9833,1.9866,1.983,1.9826,1.9787,1.9872,1.9737,1.9731,1.9726,1.964,1.9626,1.9614,0,0,0,0,0,1.9751,1.9696,1.9723,1.9722,1.9727,1.9712,1.9713,1.9754,1.9792,1.9767,1.979,1.9832,1.9793,1.9825,1.9822,1.9781,1.974,1.9733,1.9726,1.9645,1.9628,1.9614,0,0,0,0,0,0,1.9659,1.9701,1.9731,1.9685,1.9694,1.9727,1.9697,1.9734,1.9732,1.974,1.9789,1.9793,1.9751,1.9763,1.9799,1.9719,1.9773,1.9765,1.9713,1.9697,1.9684,1.9682,1.987,0,0,0,0,0,1.9633,1.9619,1.9657,1.9612,1.9615,1.9655,1.965,1.9681,1.9692,1.9696,1.9717,1.9725,1.9715,1.9706,1.9699,1.9642,1.9648,1.9613,1.96,1.9589,1.9582,1.9553,1.9538,1.9701,1.9701,1.9701,0,0,1.958,1.9601,1.9589,1.9594,1.9605,1.9588,1.9658,1.9637,1.9625,1.9693,1.9661,1.9676,1.9689,1.9642,1.9623,1.9651,1.9538,1.958,1.9572,1.957,1.9545,1.9529,1.9516,1.9696,1.9697,1.9698,0,0,1.9474,1.9489,1.9454,1.9464,1.9481,1.9509,1.95,1.9527,1.9541,1.951,1.9561,1.9547,1.9528,1.9535,1.9536,1.9435,1.9473,1.9431,1.9363,1.9335,1.9322,1.9311,1.9275,1.9262,1.9423,1.9423,1.9423,0,1.9405,1.9384,1.943,1.9407,1.9408,1.9471,1.9435,1.9442,1.9455,1.9453,1.9485,1.9464,1.9476,1.9433,1.9409,1.9407,1.9399,1.9428,1.9321,1.931,1.93,1.9266,1.9253,1.9418,1.9418,1.9419,1.9419,0,1.9298,1.9282,1.9252,1.9265,1.9262,1.9232,1.9274,1.9265,1.9296,1.932,1.9288,1.9306,1.9304,1.9296,1.9325,1.9257,1.9274,1.9312,1.9367,1.9279,1.9248,1.9235,1.941,1.9412,1.9414,1.9415,0,0,1.9133,1.9175,1.9163,1.917,1.9194,1.9182,1.9156,1.9156,1.9147,1.9154,1.9132,1.9116,1.9152,1.9153,1.9184,1.9159,1.9078,1.9201,1.9202,1.9178,1.9005,1.8976,1.896,1.9104,1.9102,1.91,1.9004,0,1.9034,1.8992,1.9035,1.8984,1.897,1.903,1.9007,1.9019,1.904,1.9031,1.9054,1.9042,1.909,1.9092,1.907,1.9093,1.9044,1.91,1.9084,1.9083,1.9079,1.8944,1.8913,1.8821,1.8992,1.899,1.8989,0,1.8912,1.8916,1.8864,1.8893,1.8889,1.8867,1.8871,1.8862,1.8876,1.8894,1.8896,1.8934,1.8909,1.8964,1.893,1.8967,1.8963,1.8973,1.897,1.897,1.903,1.894,1.8792,1.8778,1.897,1.8971,1.8973,0,1.8798,1.879,1.8758,1.8763,1.8795,1.8779,1.8791,1.8809,1.8807,1.8809,1.8808,1.8807,1.8806,1.8804,1.8841,1.8877,1.8802,1.886,1.8815,1.8814,1.8796,1.8797,1.8646,1.8793,1.8793,1.8794,1.8794,0,1.8682,1.8648,1.8708,1.8688,1.8652,1.8701,1.8663,1.8682,1.8697,1.8681,1.8733,1.8717,1.8767,1.8756,1.8784,1.8752,1.8751,1.8763,1.8771,1.8759,1.8757,1.8756,1.8764,1.879,1.8791,1.8792,1.8792,0,1.8548,1.8587,1.8557,1.8591,1.8599,1.8571,1.8599,1.8582,1.8608,1.8588,1.8586,1.8625,1.8615,1.8652,1.8647,1.8667,1.8619,1.8637,1.8614,1.862,1.8573,1.8577,1.8417,1.8398,1.8557,1.8556,1.8554,0,1.8472,1.8448,1.848,1.8475,1.8485,1.8475,1.8474,1.852,1.8516,1.8532,1.8513,1.8507,1.8506,1.8486,1.8514,1.8511,1.8529,1.8473,1.8529,1.8517,1.8528,1.8529,1.8527,1.8461,1.8459,1.8458,1.8456,0,1.8332,1.8353,1.835,1.8354,1.8351,1.8355,1.8363,1.8355,1.8406,1.8398,1.839,1.8389,1.8386,1.8379,1.8382,1.8394,1.8433,1.8439,1.8429,1.8415,1.8403,1.8409,1.8583,1.8442,1.8444,1.8445,1.8445,1.8446,1.8225,1.8207,1.8227,1.8222,1.8234,1.824,1.8227,1.8251,1.8246,1.8248,1.8276,1.8262,1.8277,1.8286,1.8294,1.8283,1.8309,1.8293,1.829,1.8285,1.8277,1.8405,1.8283,1.8284,1.8284,1.8285,1.8285,0,1.8089,1.8105,1.81,1.8111,1.8107,1.8147,1.8158,1.8151,1.8139,1.8151,1.8149,1.8139,1.8134,1.8162,1.816,1.8146,1.8164,1.8144,1.8145,1.8147,1.8254,1.8263,1.8129,1.8129,1.8129,1.8129,1.8129,1.8129,1.8017,1.7989,1.8012,1.799,1.8006,1.7995,1.7998,1.8004,1.8014,1.8002,1.7998,1.8017,1.8035,1.8036,1.8032,1.8041,1.8037,1.8011,1.8025,1.8124,1.8139,1.8154,1.8163,1.801,1.801,1.7919,1.7918,1.7918]}]]